AirNav   Everest Fuels
 
 1146 users online  

04MA Goddard Airport
Haverhill, Massachusetts, USA

GOING TO HAVERHILL?


FAA INFORMATION EFFECTIVE 10 SEPTEMBER 2020

Location

FAA Identifier: 04MA
Lat/Long: 42-48-35.3210N 071-08-21.2110W
42-48.588683N 071-08.353517W
42.8098114,-71.1392253
(estimated)
Elevation: 200 ft. / 61 m (estimated)
Variation: 16W (1990)
From city: 3 miles NW of HAVERHILL, MA
Time zone: UTC -4 (UTC -5 during Standard Time)
Zip code: 01832

Airport Operations

Airport use: Private use, PERSONAL USE.
Activation date: 12/1992
Control tower: no
ARTCC: BOSTON CENTER
FSS: BRIDGEPORT FLIGHT SERVICE STATION
Attendance: UNATNDD
Wind indicator: yes
Segmented circle: no

Airport Communications

WX ASOS at LWM (6 nm S): PHONE 978-687-8017
WX ASOS at MHT (15 nm NW): 119.55 (603-621-1766)
WX AWOS-3PT at ASH (17 nm W): 125.1 (603-578-0473)
WX ASOS at BVY (17 nm SE): PHONE 978-921-5042

Nearby radio navigation aids

VOR radial/distance  VOR name  Freq  Var
LWMr350/4.6LAWRENCE VOR/DME112.5015W
MHTr124/10.7MANCHESTER VOR/DME114.4015W
PSMr235/21.3PEASE VOR/DME116.5016W
BOSr002/27.9BOSTON VOR/DME112.7016W
CONr157/31.2CONCORD VOR/DME112.9015W

 
NDB name  Hdg/Dist  Freq  Var  ID
ROLLINS225/28.126016WESG . ... --.

Airport Services

Runway Information

Runway 16/34

Dimensions: 2100 x 300 ft. / 640 x 91 m
Surface: turf
RUNWAY 16  RUNWAY 34
Traffic pattern: leftleft

Airport Ownership and Management from official FAA records

Ownership: Privately-owned
Owner: ROBERT J. GODDARD
1020 NORTH BROADWAY
HAVERHILL, MA 01832
Phone 978-372-3642
Manager: ROBERT J. GODDARD
1020 NORTH BROADWAY
HAVERHILL, MA 01832
Phone 978-372-3642

Airport Operational Statistics

Aircraft based on the field: 1
Single engine airplanes: 1
    

Additional Remarks

OWNER DESIRES ARPT NOT BE CHARTED.
FOR CD CTC BOSTON APCH AT 603-594-5554.

Instrument Procedures

There are no published instrument procedures at 04MA.

Some nearby airports with instrument procedures:

KLWM - Lawrence Municipal Airport (6 nm S)
KMHT - Manchester Airport (15 nm NW)
KASH - Boire Field Airport (17 nm W)
KBVY - Beverly Regional Airport (17 nm SE)
KPSM - Portsmouth International Airport at Pease (21 nm NE)
 
Loc | Ops | Rwys | IFR | FBO | Links
Com | Nav | Svcs | Stats | Notes
Area around 04MA (Goddard Airport)
 
Road maps at: MapQuest Bing Google
 
Aerial photo
No photo
 
Sectional chart

 
Airport distance calculator
Flying to Goddard Airport? Find the distance to fly.

From to 04MA

Sunrise and sunset
Times for 19-Sep-2020
 Local
(UTC-4)
 Zulu
(UTC)
Morning civil twilight06:0210:02
Sunrise06:3110:31
Sunset18:4522:45
Evening civil twilight19:1423:14

Current date and time
Zulu (UTC)  19-Sep-2020 17:48:14
Local (UTC-4)  19-Sep-2020 13:48:14
 
METAR
KLWM 
6nm S 
191654Z VRB03KT 10SM CLR 16/M02 A3033 RMK AO2 SLP268 T01561017
KMHT 
15nm NW 
191653Z 35006KT 10SM FEW070 16/M05 A3030 RMK AO2 SLP275 T01561050
KBVY 
17nm SE 
191653Z VRB06KT 10SM CLR 16/M01 A3030 RMK AO2 SLP255 T01561011
KASH 
17nm W 
191656Z VRB06KT 10SM CLR 15/M03 A3032 RMK AO2 SLP274 T01501033
TAF
KMHT 
15nm NW 
191121Z 1912/2012 35006KT P6SM SKC FM191400 34009G16KT P6SM SKC FM192200 35004KT P6SM SKC
NOTAMs
Click for the latest NOTAMs
NOTAMs are issued by the DoD/FAA and will open in a separate window not controlled by AirNav.

 

 
 

Would you like to see your business listed on this page?

 If your business provides an interesting product or service to pilots, flight crews, aircraft, or users of the Goddard Airport, you should consider listing it here.  To start the listing process, click on the button below
 
Add a business
 

Other Pages about Goddard Airport

Update a link
 
Copyright © AirNav, LLC. All rights reserved. Privacy Policy  Contact